Tracking 28081 objects as of 27-Sep-2023
HD Live streaming from Space Station
objects crossing your sky now

STARLINK-5365

Track STARLINK-5365 now!
10-day predictions
STARLINK-5365 is classified as:


NORAD ID: 55498
Int'l Code: 2023-015BB
Perigee: 565.3 km
Apogee: 567.2 km
Inclination: 43.0 °
Period: 95.8 minutes
Semi major axis: 6937 km
RCS: Unknown
Launch date: February 2, 2023
Source: United States (US)
Launch site: AIR FORCE EASTERN TEST RANGE (AFETR)
Your satellite tracking list
Your tracking list is empty




NASA's NSSDC Master Catalog

Two Line Element Set (TLE):
1 55498U 23015BB  23269.86218901 -.00001600  00000-0 -10345-3 0  9994
2 55498  43.0026 160.7936 0001336 272.7893  87.2796 15.02521787 36007
Source of the keplerian elements: AFSPC